Weather in Bilokurakyne

Ukraine / Luhansk Region     49˚31′53″N   38˚43′20″E
temp.,
°C
wind,
m/s
gust,
m/s
humid.,
%
clouds,
%
prec.,
mm/h
press.,
hPa
HPBL,
m
29 november, sun
sun2923:00+1˚se51086100 0.0 1025352
02:00se6109787 0.0 1025340
05:00+2˚se61097100 0.0 1025478
08:00+2˚se71197100 0.0 1025559
11:00+5˚sse71191100 0.0 1025687
14:00+6˚sse61184100 0.0 1025688
17:00+6˚se51286100 0.0 1027587
20:00+5˚se71385100 0.0 1027576
30 november, mon
mon3023:00+5˚se51186100 0.0 1028615
02:00+4˚se61286100 0.0 1028579
05:00+4˚se61186100 0.0 1028569
08:00+3˚se61181100 0.0 1029584
11:00+4˚ese7117496 0.0 1028674
14:00+4˚ese7107397 0.0 1028812
17:00+4˚ese6117499 0.0 1028801
20:00+2˚se7126999 0.0 1028710
1 december, tue
tue123:00+2˚se71267100 0.0 1029720
02:00+1˚ese6117498 0.0 1029582
05:00−1˚ese5118662 0.0 1029512
08:00−1˚ese6108470 0.0 1030544
11:00+1˚ese6107071 0.0 1030585
14:00+1˚ese696447 0.0 1030670
17:00−1˚e612730 0.0 1030552
20:00−2˚ese612720 0.0 1031558
2 december, wed
wed223:00−2˚e6117132 0.0 1031562
02:00−3˚e6117217 0.0 1032552
05:00−4˚e6117213 0.0 1032511
08:00−4˚ese6117044 0.0 1032561
11:00−2˚ese696374 0.0 1032576
14:00−1˚e696281 0.0 1031632
17:00−2˚e6126766 0.0 1031558
20:00−2˚ese6116784 0.0 1032554
3 december, thu
thu323:00−3˚ese61166100 0.0 1032532
02:00−4˚ese6116897 0.0 1032516
05:00−3˚ese6106699 0.0 1032501
08:00−3˚ese61065100 0.0 1033518
11:00−2˚ese7106199 0.0 1033531
14:00−3˚ese61079100 0.1 1032539
17:00−3˚ese6117591 0.1 1032573
20:00−3˚ese6117494 0.1 1032582